Weather History for Haines, AK

Change the Weather History Date:

Monday, May 20, 2013

  Actual Average Record
Temperature  
Mean Temperature 43 °F -  
Max Temperature 51 °F 56 °F 75 °F (2002)
Min Temperature 36 °F 41 °F 32 °F (1978)
Degree Days  
Heating Degree Days 22    
Moisture  
Dew Point 24 °F    
Average Humidity 50    
Maximum Humidity 89    
Minimum Humidity 25    
Precipitation  
Precipitation 0.00 in - - ()
Sea Level Pressure  
Sea Level Pressure 30.54 in    
Wind  
Wind Speed 6 mph (WNW)    
Max Wind Speed 16 mph    
Max Gust Speed 32 mph    
Visibility 10 miles    
Events Rain    
Averages and records for this station are not official NWS values.
T = Trace of Precipitation, MM = Missing Value Source: NWS Daily Summary

Daily Weather History Graph

Daily Weather History Graph

Search for Another Location

Airport:

Trip Planner

Search our weather history database for the weather conditions in past years. The results will help you decide how hot, cold, wet, or windy it might be!

Date:

Astronomy

May. 20, 2013 Rise Set
Actual Time 4:18 AM AKDT 9:40 PM AKDT
Civil Twilight 3:13 AM AKDT 10:45 PM AKDT
Nautical Twilight 1:31 AM AKDT 12:26 AM AKDT
Astronomical Twilight Sun does not rise Sun does not rise
Moon 3:49 PM AKDT (5/20) 2:32 AM AKDT (5/20)
Length of Visible Light 19h 32m
Length of Day
17h 22m
Waxing Gibbous, 76% of the Moon is Illuminated
May 20
Waxing Gibbous
May 24
Full
May 31
Last Quarter
Jun 8
New
Jun 16
First Quarter

Hourly Weather History & Observations

Time (AKDT) Temp. Windchill Dew Point Humidity Pressure Visibility Wind Dir Wind Speed Gust Speed Precip Events Conditions
12:54 AM 36.0 °F - 32.0 °F 86% 30.51 in 10.0 mi Calm Calm - N/A   Clear
1:54 AM 36.0 °F - 33.1 °F 89% 30.52 in 10.0 mi Calm Calm - N/A   Overcast
2:54 AM 37.0 °F - 33.1 °F 86% 30.53 in 10.0 mi Calm Calm - N/A   Overcast
3:54 AM 37.0 °F 31.6 °F 30.9 °F 79% 30.54 in 10.0 mi WNW 6.9 mph - 0.00 in Rain Light Rain
4:54 AM 37.9 °F 31.5 °F 32.0 °F 79% 30.55 in 10.0 mi NNW 9.2 mph - 0.00 in   Overcast
5:54 AM 37.9 °F 33.5 °F 33.1 °F 83% 30.56 in 10.0 mi NW 5.8 mph - 0.00 in   Overcast
6:54 AM 39.0 °F 32.8 °F 32.0 °F 76% 30.56 in 10.0 mi NW 9.2 mph - N/A   Overcast
7:54 AM 41.0 °F 36.4 °F 33.1 °F 73% 30.57 in 10.0 mi WNW 6.9 mph - N/A   Overcast
8:54 AM 42.1 °F 37.7 °F 30.9 °F 65% 30.57 in 10.0 mi NNW 6.9 mph - N/A   Scattered Clouds
9:54 AM 46.9 °F - 23.0 °F 39% 30.56 in 10.0 mi West 15.0 mph - N/A   Partly Cloudy
10:54 AM 46.9 °F - 19.0 °F 33% 30.56 in 10.0 mi WSW 10.4 mph 25.3 mph N/A   Clear
11:54 AM 48.0 °F - 19.0 °F 32% 30.56 in 10.0 mi Variable 3.5 mph - N/A   Clear
12:54 PM 48.9 °F - 18.0 °F 29% 30.56 in 10.0 mi Variable 3.5 mph - N/A   Clear
1:54 PM 48.0 °F - 15.1 °F 27% 30.55 in 10.0 mi Variable 3.5 mph 26.5 mph N/A   Clear
2:54 PM 48.0 °F - 14.0 °F 26% 30.54 in 10.0 mi South 9.2 mph 20.7 mph N/A   Clear
3:54 PM 50.0 °F - 15.1 °F 25% 30.53 in 10.0 mi Variable 6.9 mph 20.7 mph N/A   Clear
4:54 PM 50.0 °F - 16.0 °F 26% 30.52 in 10.0 mi West 9.2 mph 32.2 mph N/A   Clear
5:54 PM 50.0 °F - 17.1 °F 27% 30.51 in 10.0 mi West 16.1 mph 21.9 mph N/A   Clear
6:54 PM 50.0 °F - 16.0 °F 26% 30.50 in 10.0 mi WNW 12.7 mph 21.9 mph N/A   Clear
7:54 PM 50.0 °F - 21.9 °F 33% 30.50 in 10.0 mi West 16.1 mph - N/A   Clear
8:54 PM 46.0 °F 43.1 °F 19.0 °F 34% 30.51 in 10.0 mi NW 5.8 mph - N/A   Clear
9:54 PM 44.1 °F 42.5 °F 21.9 °F 42% 30.52 in 10.0 mi NNW 3.5 mph - N/A   Clear
10:54 PM 39.9 °F 33.4 °F 25.0 °F 55% 30.51 in 10.0 mi WNW 10.4 mph - N/A   Clear
11:54 PM 42.1 °F 34.9 °F 19.9 °F 41% 30.51 in 10.0 mi WNW 13.8 mph - N/A   Clear